Weather History for Vicksburg, MS

Change the Weather History Date:

Thursday, July 17, 2014

  Actual Average Record
Temperature  
Mean Temperature 73 °F 82 °F  
Max Temperature 83 °F 92 °F 102 °F (2000)
Min Temperature 63 °F 71 °F 63 °F (2014)
Degree Days  
Heating Degree Days 0 0  
Month to date heating degree days 0 0  
Since 1 June heating degree days 0 0  
Since 1 July heating degree days 0 0  
Cooling Degree Days 8 17  
Month to date cooling degree days 221 275  
Year to date cooling degree days 995 1063  
Since 1 June cooling degree days 645 693  
Growing Degree Days 23 (Base 50)    
Moisture  
Dew Point 63 °F    
Average Humidity 72    
Maximum Humidity 93    
Minimum Humidity 51    
Precipitation  
Precipitation 0.09 in 0.13 in 2.33 in (1955)
Month to date precipitation 1.68 2.04  
Year to date precipitation 36.56 31.33  
Sea Level Pressure  
Sea Level Pressure 30.03 in    
Wind  
Wind Speed 4 mph (ENE)    
Max Wind Speed 12 mph    
Max Gust Speed 15 mph    
Visibility 10 miles    
Events Rain    
T = Trace of Precipitation, MM = Missing Value Source: NWS Daily Summary

Daily Weather History Graph

Daily Weather History Graph

Search for Another Location

Airport:

Trip Planner

Search our weather history database for the weather conditions in past years. The results will help you decide how hot, cold, wet, or windy it might be!

Date:

Astronomy

Jul. 17, 2014 Rise Set
Actual Time 6:09 AM CDT 8:11 PM CDT
Civil Twilight 5:41 AM CDT 8:38 PM CDT
Nautical Twilight 5:07 AM CDT 9:12 PM CDT
Astronomical Twilight 4:31 AM CDT 9:48 PM CDT
Moon 11:56 PM CDT (7/17) 11:57 AM CDT (7/17)
Length of Visible Light 14h 57m
Length of Day
14h 02m
Waning Gibbous, 65% of the Moon is Illuminated
Jul 17
Waning Gibbous
Jul 18
Last Quarter
Jul 26
New
Aug 3
First Quarter
Aug 10
Full

Hourly Weather History & Observations

Time (CDT) Temp. Heat Index Dew Point Humidity Pressure Visibility Wind Dir Wind Speed Gust Speed Precip Events Conditions
12:53 AM 69.1 °F - 62.1 °F 78% 30.03 in 10.0 mi Calm Calm - N/A   Clear
1:53 AM 64.9 °F - 62.1 °F 90% 30.02 in 10.0 mi Calm Calm - N/A   Clear
2:53 AM 68.0 °F - 61.0 °F 78% 30.02 in 10.0 mi East 3.5 mph - N/A   Clear
3:53 AM 66.0 °F - 63.0 °F 90% 30.02 in 10.0 mi Calm Calm - N/A   Clear
4:53 AM 64.9 °F - 63.0 °F 93% 30.04 in 10.0 mi Calm Calm - N/A   Clear
5:53 AM 64.0 °F - 62.1 °F 93% 30.05 in 10.0 mi Calm Calm - N/A   Clear
6:53 AM 66.0 °F - 64.0 °F 93% 30.06 in 10.0 mi Calm Calm - N/A   Clear
7:53 AM 70.0 °F - 63.0 °F 78% 30.07 in 10.0 mi ENE 3.5 mph - N/A   Clear
8:53 AM 72.0 °F - 63.0 °F 73% 30.08 in 10.0 mi ESE 4.6 mph - N/A   Clear
9:53 AM 75.9 °F - 62.1 °F 62% 30.07 in 10.0 mi ESE 8.1 mph - N/A   Clear
10:53 AM 79.0 °F - 62.1 °F 56% 30.07 in 10.0 mi East 8.1 mph - N/A   Clear
12:53 PM 80.1 °F 81.2 °F 62.1 °F 54% 30.06 in 10.0 mi ESE 4.6 mph - N/A   Clear
1:53 PM 81.0 °F 81.7 °F 61.0 °F 50% 30.03 in 10.0 mi Calm Calm - N/A   Clear
2:53 PM 82.9 °F 84.0 °F 63.0 °F 51% 30.03 in 10.0 mi Calm Calm - N/A   Partly Cloudy
3:53 PM 81.0 °F 82.5 °F 64.0 °F 56% 30.00 in 10.0 mi East 4.6 mph - N/A   Scattered Clouds
4:53 PM 81.0 °F 82.5 °F 64.0 °F 56% 30.01 in 10.0 mi ENE 4.6 mph - 0.00 in   Clear
5:53 PM 80.1 °F 81.9 °F 64.9 °F 60% 29.99 in 10.0 mi ENE 5.8 mph - N/A   Clear
6:53 PM 78.1 °F - 66.0 °F 66% 29.99 in 10.0 mi NE 5.8 mph - N/A   Overcast
7:53 PM 77.0 °F - 64.0 °F 64% 29.99 in 10.0 mi ENE 8.1 mph - N/A   Overcast
8:53 PM 75.9 °F - 64.0 °F 67% 29.99 in 10.0 mi NE 8.1 mph - N/A   Mostly Cloudy
9:53 PM 73.9 °F - 64.9 °F 73% 30.00 in 10.0 mi ENE 5.8 mph - 0.00 in Rain Light Rain
10:53 PM 71.1 °F - 66.0 °F 84% 30.04 in 8.0 mi North 6.9 mph - 0.01 in Rain Light Rain
11:53 PM 69.1 °F - 66.0 °F 90% 30.03 in 10.0 mi ENE 5.8 mph - 0.04 in Rain Light Rain